Tacoma Narrows, WA
on Wednesday, February 27, 2013

Wednesday
Previous Day Next Day
Daily Summary
 ActualAverageRecord
Temperature
Mean Temperature °F / °C °F / °C  
Max Temperature 46°F / 8°C 47°F / 8°C 57°F / 13°C (2005)
Min Temperature 41°F / 5°C 36°F / 2°C 32°F / 0°C (2001)
Degree Days
Heating Degree Days 22    
Moisture
Dew Point 39°F / 4°C   
Average Humidity 84    
Maximum Humidity 93    
Minimum Humidity 68    
Precipitation
Precipitation 0.13 in / 3.30 cm in / cm in / cm ()
Wind
Wind Speed 6 mph / 10 km/h   
Max Wind Speed 13 mph / 21 km/h   
Max Gust Speed 20 mph / 32 km/h   
Visibility 9 miles / 14 kilometers   
Events Rain   
Averages and records for this station are not official NWS values.
Key: T is trace of precipitation, MM is missing value
Source: NWS Daily Summary
Seasonal Weather Averages
Time(PST)TemperatureDew PointHumidity Pressure Visibility Wind DirectionWind SpeedGust SpeedPrecipitationEvents Conditions
12:53 AM 44.1°F / 6.7°C 34.0°F / 1.1°C 68% 30.22 in / 1023.2 hPa 10.0 miles / 16.1 kilometers SW 12.7 mph / 20.4 km/h 19.6 mph / 31.5 km/h 0.01 in / 0.3 cm   Overcast
1:07 AM 42.8°F / 6.0°C 35.6°F / 2.0°C 76% 30.22 in / 1023.2 hPa 10.0 miles / 16.1 kilometers West 6.9 mph / 11.1 km/h - N/A   Overcast
1:39 AM 42.8°F / 6.0°C 35.6°F / 2.0°C 76% 30.23 in / 1023.6 hPa 10.0 miles / 16.1 kilometers SSW 6.9 mph / 11.1 km/h - 0.00 in / 0.0 cm   Overcast
1:53 AM 42.1°F / 5.6°C 36.0°F / 2.2°C 79% 30.24 in / 1024.0 hPa 10.0 miles / 16.1 kilometers South 10.4 mph / 16.7 km/h - 0.00 in / 0.0 cm   Overcast
2:34 AM 42.8°F / 6.0°C 35.6°F / 2.0°C 76% 30.24 in / 1023.9 hPa 10.0 miles / 16.1 kilometers SSW 6.9 mph / 11.1 km/h - N/A   Overcast
2:53 AM 43.0°F / 6.1°C 36.0°F / 2.2°C 76% 30.25 in / 1024.3 hPa 10.0 miles / 16.1 kilometers SSW 6.9 mph / 11.1 km/h - N/A   Overcast
3:16 AM 41.0°F / 5.0°C 35.6°F / 2.0°C 81% 30.25 in / 1024.3 hPa 10.0 miles / 16.1 kilometers South 5.8 mph / 9.3 km/h - N/A   Mostly Cloudy
3:53 AM 41.0°F / 5.0°C 37.0°F / 2.8°C 86% 30.25 in / 1024.4 hPa 10.0 miles / 16.1 kilometers SSW 6.9 mph / 11.1 km/h - N/A   Partly Cloudy
4:08 AM 42.8°F / 6.0°C 37.4°F / 3.0°C 81% 30.25 in / 1024.3 hPa 10.0 miles / 16.1 kilometers SSW 6.9 mph / 11.1 km/h - N/A   Mostly Cloudy
4:31 AM 42.8°F / 6.0°C 37.4°F / 3.0°C 81% 30.25 in / 1024.3 hPa 10.0 miles / 16.1 kilometers SSW 6.9 mph / 11.1 km/h - N/A   Mostly Cloudy
4:53 AM 42.1°F / 5.6°C 37.0°F / 2.8°C 82% 30.27 in / 1024.9 hPa 10.0 miles / 16.1 kilometers South 5.8 mph / 9.3 km/h - N/A   Clear
5:38 AM 41.0°F / 5.0°C 37.4°F / 3.0°C 87% 30.28 in / 1025.3 hPa 10.0 miles / 16.1 kilometers South 3.5 mph / 5.6 km/h - N/A   Partly Cloudy
5:53 AM 41.0°F / 5.0°C 37.9°F / 3.3°C 89% 30.30 in / 1025.9 hPa 10.0 miles / 16.1 kilometers South 4.6 mph / 7.4 km/h - N/A   Scattered Clouds
6:53 AM 41.0°F / 5.0°C 37.4°F / 3.0°C 87% 30.29 in / 1025.6 hPa 10.0 miles / 16.1 kilometers South 3.5 mph / 5.6 km/h - N/A   Clear
7:53 AM 42.1°F / 5.6°C 37.9°F / 3.3°C 85% 30.30 in / 1026.0 hPa 10.0 miles / 16.1 kilometers South 4.6 mph / 7.4 km/h - N/A   Scattered Clouds
8:53 AM 43.0°F / 6.1°C 37.9°F / 3.3°C 82% 30.30 in / 1025.8 hPa 10.0 miles / 16.1 kilometers South 4.6 mph / 7.4 km/h - N/A   Mostly Cloudy
9:53 AM 44.1°F / 6.7°C 37.9°F / 3.3°C 79% 30.29 in / 1025.5 hPa 10.0 miles / 16.1 kilometers Calm Calm - N/A   Overcast
10:53 AM 45.0°F / 7.2°C 37.0°F / 2.8°C 74% 30.30 in / 1025.9 hPa 10.0 miles / 16.1 kilometers West 3.5 mph / 5.6 km/h - N/A   Overcast
11:53 AM 45.0°F / 7.2°C 37.9°F / 3.3°C 76% 30.31 in / 1026.2 hPa 10.0 miles / 16.1 kilometers Calm Calm - N/A   Overcast
12:53 PM 46.0°F / 7.8°C 37.9°F / 3.3°C 73% 30.30 in / 1026.0 hPa 10.0 miles / 16.1 kilometers Calm Calm - N/A   Overcast
1:53 PM 46.9°F / 8.3°C 39.0°F / 3.9°C 74% 30.27 in / 1025.1 hPa 10.0 miles / 16.1 kilometers Calm Calm - 0.00 in / 0.0 cm   Overcast
2:53 PM 46.9°F / 8.3°C 39.0°F / 3.9°C 74% 30.28 in / 1025.2 hPa 10.0 miles / 16.1 kilometers WNW 3.5 mph / 5.6 km/h - N/A   Overcast
3:53 PM 45.0°F / 7.2°C 41.0°F / 5.0°C 86% 30.28 in / 1025.2 hPa 6.0 miles / 9.7 kilometers NW 3.5 mph / 5.6 km/h - 0.01 in / 0.3 cm Rain Light Rain
4:23 PM 44.6°F / 7.0°C 42.8°F / 6.0°C 93% 30.26 in / 1024.6 hPa 10.0 miles / 16.1 kilometers Calm Calm - 0.00 in / 0.0 cm Rain Light Rain
4:53 PM 45.0°F / 7.2°C 42.1°F / 5.6°C 90% 30.27 in / 1024.8 hPa 3.0 miles / 4.8 kilometers Calm Calm - 0.01 in / 0.3 cm Rain Light Rain
5:53 PM 44.1°F / 6.7°C 42.1°F / 5.6°C 93% 30.27 in / 1024.9 hPa 3.0 miles / 4.8 kilometers Calm Calm - 0.02 in / 0.5 cm Rain Light Rain
6:07 PM 44.6°F / 7.0°C 42.8°F / 6.0°C 93% 30.26 in / 1024.6 hPa 2.0 miles / 3.2 kilometers Calm Calm - 0.04 in / 1.0 cm Rain Light Rain
6:53 PM 44.1°F / 6.7°C 42.1°F / 5.6°C 93% 30.26 in / 1024.7 hPa 2.0 miles / 3.2 kilometers Calm Calm - 0.06 in / 1.5 cm   Overcast
7:50 PM 44.6°F / 7.0°C 42.8°F / 6.0°C 93% 30.27 in / 1024.9 hPa 3.0 miles / 4.8 kilometers North 4.6 mph / 7.4 km/h - 0.02 in / 0.5 cm Rain Light Rain
7:53 PM 44.1°F / 6.7°C 42.1°F / 5.6°C 93% 30.28 in / 1025.3 hPa 3.0 miles / 4.8 kilometers North 4.6 mph / 7.4 km/h - 0.02 in / 0.5 cm Rain Light Rain
8:46 PM 44.6°F / 7.0°C 42.8°F / 6.0°C 93% 30.27 in / 1024.9 hPa 10.0 miles / 16.1 kilometers North 3.5 mph / 5.6 km/h - 0.00 in / 0.0 cm   Overcast
8:53 PM 44.1°F / 6.7°C 42.1°F / 5.6°C 93% 30.28 in / 1025.2 hPa 10.0 miles / 16.1 kilometers Calm Calm - 0.00 in / 0.0 cm   Overcast
9:21 PM 44.6°F / 7.0°C 41.0°F / 5.0°C 87% 30.27 in / 1024.9 hPa 10.0 miles / 16.1 kilometers Calm Calm - N/A   Overcast
9:29 PM 44.6°F / 7.0°C 42.8°F / 6.0°C 93% 30.27 in / 1024.9 hPa 10.0 miles / 16.1 kilometers Calm Calm - N/A   Overcast
9:53 PM 44.1°F / 6.7°C 41.0°F / 5.0°C 89% 30.27 in / 1025.1 hPa 10.0 miles / 16.1 kilometers North 3.5 mph / 5.6 km/h - N/A   Overcast
10:53 PM 44.1°F / 6.7°C 39.9°F / 4.4°C 85% 30.27 in / 1025.0 hPa 10.0 miles / 16.1 kilometers NNE 5.8 mph / 9.3 km/h - N/A   Overcast
11:29 PM 42.8°F / 6.0°C 39.2°F / 4.0°C 87% 30.26 in / 1024.6 hPa 10.0 miles / 16.1 kilometers NNE 4.6 mph / 7.4 km/h - N/A   Overcast
11:38 PM 42.8°F / 6.0°C 39.2°F / 4.0°C 87% 30.26 in / 1024.6 hPa 10.0 miles / 16.1 kilometers NNE 4.6 mph / 7.4 km/h - N/A   Overcast
11:53 PM 43.0°F / 6.1°C 39.9°F / 4.4°C 89% 30.26 in / 1024.5 hPa 10.0 miles / 16.1 kilometers NE 3.5 mph / 5.6 km/h - N/A   Overcast
Moon Phase
Feb. 27 Mar. 04 Mar. 11 Mar. 19 Mar. 27
Sunrise:06:53 AM (PST) Moon Rise:08:34 PM (PST)2/27
Sunset:05:53 PM (PST) Moon Set:07:20 AM (PST)2/27

Copyright © 2014 The Weather Underground, Inc.